Ana Sayfa
METAR-TAF:

METAR-TAF

Havaalanları :

Coonamble, Avustralya

Enlem: 30-59-00S, Boylam: 148-22-30E, yükseklik: 184 m

Güncel hava durumu gözlemi

Rapor saat 10:00 UTC de 29 dakika önce yapıldı.
Rüzgar güneydan 9 kt
Sıcaklık 36°C
Nem 15%
Basınç 1010 hPa

METAR: YCNM 291000Z AUTO 18009KT //// // ////// 36/05 Q1010

Saat: 21:29 (10:29 UTC)


TAF: eksik

4.000'den fazla havaalanı için hava durumu gözlemleri ve tahminleri (METAR ve TAF raporları).

Kullanılabilir istasyonlar harita üzerinde sarı ve kırmızı noktalarla gösterilir.

İstasyonun adını görmek için fareyi noktanın üzerinde gezdirin.

Sonrasında hava gözlem ve tahminlerini görmek için tıklayın.

Haritayı değiştirmek için: yaklaştırmak için siyah artı işaretli yeşil düğmeye ve uzaklaştırmak için de eksi işaretli düğmeye hızla tıklayın; bitişik haritalar için yeşil okları kullanın.


METAR-TAF: